Back to catalog

STARLINK-6114

AliveCommunicationsVLEO
NORAD 56116·PAYLOAD·🇺🇸 United States

Launched Mar 29, 2023 from Cape Canaveral Space Force Station

Loading…

Next Passes (next 24 hours)

TLE

FreshSource: CelesTrak SupGP

Epoch: Sep 14, 2026, 22:01 UTC

1 56116C 23046Z   26257.91784722 -.00028057  00000+0 -10162-2 0  2578
2 56116  43.0018 173.3137 0001707 263.8187 202.0054 15.27591590    10

Track STARLINK-6114 in real time with AllMySat

Download on the App Store